When you browse on this site, cookies collect data to enhance your experience and personalize the content and advertising you see.
Visit our Privacy Policy to learn more. By continuing to use the site, you agree to this use of cookies and data.
  • In Portugal
  • List of Countries
  • For 7 days
  • Water Temperature
  • Weather Map
  • Weather Widgets
  • user-avatar
    Login

    Hourly Weather Oran

    Today, 15 October, Tuesday

    Time Temperature Precipitation Wind Pressure Humidity
    00:00 +22°C° 0 mm 8 mps 753 mmHg 71%
    01:00 +21°C° 0 mm 7 mps 753 mmHg 71%
    02:00 +21°C° 0 mm 7 mps 753 mmHg 72%
    03:00 +21°C° 0 mm 7 mps 753 mmHg 73%
    04:00 +20°C° 0 mm 7 mps 753 mmHg 73%
    05:00 +20°C° 0 mm 6 mps 753 mmHg 74%
    06:00 +20°C° 0 mm 6 mps 754 mmHg 74%
    07:00 +21°C° 0 mm 6 mps 754 mmHg 70%
    08:00 +22°C° 0 mm 6 mps 754 mmHg 67%
    09:00 +23°C° 0 mm 6 mps 755 mmHg 64%
    10:00 +23°C° 0 mm 6 mps 755 mmHg 60%
    11:00 +24°C° 0 mm 6 mps 754 mmHg 57%
    12:00 +24°C° 0 mm 6 mps 754 mmHg 54%
    13:00 +25°C° 0 mm 5 mps 754 mmHg 54%
    14:00 +25°C° 0 mm 5 mps 754 mmHg 54%
    15:00 +25°C° 0 mm 4 mps 753 mmHg 53%
    16:00 +24°C° 0 mm 3 mps 754 mmHg 56%
    17:00 +22°C° 0 mm 3 mps 754 mmHg 58%
    18:00 +21°C° 0 mm 2 mps 754 mmHg 60%
    19:00 +22°C° 0 mm 1 mps 754 mmHg 61%
    20:00 +22°C° 0 mm 1 mps 754 mmHg 61%
    21:00 +21°C° 0 mm 1 mps 755 mmHg 62%
    22:00 +21°C° 0 mm 1 mps 755 mmHg 63%
    23:00 +19°C° 0 mm 0 mps 754 mmHg 64%

    Tomorrow, 16 October, Wednesday

    Time Temperature Precipitation Wind Pressure Humidity
    00:00 +18°C° 0 mm 0 mps 754 mmHg 65%
    01:00 +18°C° 0 mm 0 mps 754 mmHg 67%
    02:00 +18°C° 0 mm 0 mps 754 mmHg 68%
    03:00 +17°C° 0 mm 0 mps 754 mmHg 69%
    04:00 +17°C° 0 mm 0 mps 754 mmHg 70%
    05:00 +17°C° 0 mm 0 mps 754 mmHg 70%
    06:00 +19°C° 0 mm 1 mps 753 mmHg 71%
    07:00 +20°C° 0 mm 1 mps 754 mmHg 65%
    08:00 +22°C° 0 mm 1 mps 754 mmHg 59%
    09:00 +23°C° 0 mm 1 mps 754 mmHg 53%
    10:00 +24°C° 0 mm 1 mps 754 mmHg 50%
    11:00 +25°C° 0 mm 2 mps 754 mmHg 47%
    12:00 +26°C° 0 mm 2 mps 753 mmHg 44%
    13:00 +26°C° 0 mm 2 mps 753 mmHg 45%
    14:00 +26°C° 0 mm 3 mps 753 mmHg 46%
    15:00 +26°C° 0 mm 3 mps 752 mmHg 46%
    16:00 +25°C° 0 mm 3 mps 752 mmHg 49%
    17:00 +24°C° 0 mm 2 mps 752 mmHg 53%
    18:00 +23°C° 0 mm 2 mps 752 mmHg 56%
    19:00 +23°C° 0 mm 1 mps 753 mmHg 58%
    20:00 +22°C° 0 mm 1 mps 753 mmHg 60%
    21:00 +20°C° 0 mm 0 mps 754 mmHg 62%
    22:00 +20°C° 0 mm 0 mps 754 mmHg 62%
    23:00 +19°C° 0 mm 0 mps 753 mmHg 63%

    Day after tomorrow, 17 October, Thursday

    Time Temperature Precipitation Wind Pressure Humidity
    00:00 +19°C° 0 mm 0 mps 753 mmHg 64%
    01:00 +19°C° 0 mm 0 mps 753 mmHg 65%
    02:00 +18°C° 0 mm 0 mps 753 mmHg 66%
    03:00 +18°C° 0 mm 0 mps 752 mmHg 68%
    04:00 +18°C° 0 mm 0 mps 752 mmHg 69%
    05:00 +17°C° 0 mm 0 mps 752 mmHg 70%
    06:00 +19°C° 0 mm 1 mps 752 mmHg 71%
    07:00 +19°C° 0 mm 0 mps 753 mmHg 65%
    08:00 +20°C° 0 mm 0 mps 753 mmHg 60%
    09:00 +21°C° 0 mm 0 mps 753 mmHg 54%
    10:00 +24°C° 0 mm 1 mps 753 mmHg 51%
    11:00 +25°C° 0 mm 1 mps 753 mmHg 47%
    12:00 +27°C° 0 mm 2 mps 753 mmHg 44%
    13:00 +27°C° 0 mm 2 mps 753 mmHg 45%
    14:00 +26°C° 0 mm 3 mps 752 mmHg 46%
    15:00 +26°C° 0 mm 3 mps 752 mmHg 47%
    16:00 +25°C° 0 mm 3 mps 752 mmHg 51%
    17:00 +24°C° 0 mm 2 mps 752 mmHg 54%
    18:00 +23°C° 0 mm 2 mps 752 mmHg 58%
    19:00 +23°C° 0 mm 2 mps 752 mmHg 60%
    20:00 +22°C° 0 mm 1 mps 753 mmHg 61%
    21:00 +22°C° 0 mm 1 mps 753 mmHg 63%
    22:00 +22°C° 0 mm 1 mps 753 mmHg 64%
    23:00 +22°C° 0 mm 1 mps 753 mmHg 65%

    18 October, Friday

    Time Temperature Precipitation Wind Pressure Humidity
    00:00 +21°C° 0 mm 1 mps 753 mmHg 66%
    01:00 +20°C° 0 mm 2 mps 753 mmHg 67%
    02:00 +20°C° 0 mm 2 mps 753 mmHg 69%
    03:00 +19°C° 0 mm 2 mps 752 mmHg 70%
    04:00 +19°C° 0 mm 2 mps 753 mmHg 71%
    05:00 +19°C° 0 mm 2 mps 753 mmHg 72%
    06:00 +19°C° 0 mm 2 mps 753 mmHg 74%
    07:00 +20°C° 0 mm 2 mps 753 mmHg 67%
    08:00 +21°C° 0 mm 2 mps 753 mmHg 61%
    09:00 +24°C° 0 mm 2 mps 753 mmHg 55%
    10:00 +25°C° 0 mm 2 mps 753 mmHg 49%
    11:00 +26°C° 0 mm 3 mps 753 mmHg 44%
    12:00 +27°C° 0 mm 3 mps 753 mmHg 38%
    13:00 +27°C° 0 mm 3 mps 753 mmHg 39%
    14:00 +27°C° 0 mm 3 mps 752 mmHg 39%
    15:00 +27°C° 0 mm 4 mps 752 mmHg 40%
    16:00 +26°C° 0 mm 3 mps 752 mmHg 43%
    17:00 +25°C° 0 mm 3 mps 752 mmHg 46%
    18:00 +24°C° 0 mm 2 mps 752 mmHg 49%
    19:00 +23°C° 0 mm 2 mps 752 mmHg 51%
    20:00 +23°C° 0 mm 1 mps 752 mmHg 54%
    21:00 +22°C° 0 mm 1 mps 752 mmHg 56%
    22:00 +22°C° 0 mm 1 mps 752 mmHg 57%
    23:00 +21°C° 0 mm 1 mps 752 mmHg 57%

    19 October, Saturday

    Time Temperature Precipitation Wind Pressure Humidity
    00:00 +21°C° 0 mm 1 mps 752 mmHg 58%
    01:00 +21°C° 0 mm 1 mps 751 mmHg 58%
    02:00 +20°C° 0 mm 1 mps 751 mmHg 59%
    03:00 +20°C° 0 mm 1 mps 750 mmHg 60%
    04:00 +20°C° 0 mm 1 mps 750 mmHg 60%
    05:00 +20°C° 0 mm 1 mps 750 mmHg 61%
    06:00 +18°C° 0 mm 0 mps 750 mmHg 61%
    07:00 +19°C° 0 mm 0 mps 750 mmHg 55%
    08:00 +21°C° 0 mm 0 mps 750 mmHg 49%
    09:00 +23°C° 0 mm 0 mps 751 mmHg 43%
    10:00 +26°C° 0 mm 1 mps 750 mmHg 40%
    11:00 +27°C° 0 mm 2 mps 750 mmHg 38%
    12:00 +28°C° 0 mm 3 mps 750 mmHg 35%
    13:00 +28°C° 0 mm 3 mps 750 mmHg 37%
    14:00 +28°C° 0 mm 4 mps 749 mmHg 39%
    15:00 +27°C° 0 mm 4 mps 749 mmHg 41%
    16:00 +26°C° 0 mm 4 mps 749 mmHg 47%
    17:00 +25°C° 0 mm 4 mps 749 mmHg 54%
    18:00 +23°C° 0 mm 4 mps 749 mmHg 61%
    19:00 +22°C° 0 mm 4 mps 749 mmHg 66%
    20:00 +22°C° 0 mm 4 mps 750 mmHg 71%
    21:00 +21°C° 0 mm 5 mps 750 mmHg 75%
    22:00 +21°C° 0 mm 5 mps 750 mmHg 76%
    23:00 +21°C° 0 mm 6 mps 750 mmHg 77%

    20 October, Sunday

    Time Temperature Precipitation Wind Pressure Humidity
    00:00 +21°C° 0 mm 6 mps 750 mmHg 79%
    01:00 +20°C° 0 mm 6 mps 750 mmHg 81%
    02:00 +20°C° 0 mm 6 mps 750 mmHg 83%
    03:00 +20°C° 0 mm 6 mps 750 mmHg 85%
    04:00 +20°C° 0 mm 6 mps 750 mmHg 82%
    05:00 +20°C° 0 mm 7 mps 750 mmHg 79%
    06:00 +20°C° 0 mm 7 mps 751 mmHg 76%
    07:00 +21°C° 0 mm 7 mps 751 mmHg 72%
    08:00 +21°C° 0 mm 7 mps 752 mmHg 67%
    09:00 +22°C° 0 mm 7 mps 752 mmHg 62%
    10:00 +23°C° 0 mm 7 mps 752 mmHg 58%
    11:00 +24°C° 0 mm 7 mps 752 mmHg 54%
    12:00 +24°C° 0 mm 7 mps 752 mmHg 50%
    13:00 +24°C° 0 mm 6 mps 752 mmHg 50%
    14:00 +24°C° 0 mm 6 mps 752 mmHg 50%
    15:00 +23°C° 0 mm 6 mps 751 mmHg 51%
    16:00 +22°C° 0 mm 5 mps 752 mmHg 54%
    17:00 +22°C° 0 mm 4 mps 752 mmHg 57%
    18:00 +21°C° 0 mm 3 mps 752 mmHg 60%
    19:00 +20°C° 0 mm 3 mps 752 mmHg 62%
    20:00 +20°C° 0 mm 3 mps 753 mmHg 63%
    21:00 +19°C° 0 mm 3 mps 753 mmHg 65%
    22:00 +19°C° 0 mm 3 mps 753 mmHg 65%
    23:00 +19°C° 0 mm 3 mps 753 mmHg 65%
    Show more